Regional Weather Roundup
Issued by NWS Pendleton, OR

Home | Current Version | Previous Version | Text Only | Print | Product List | Glossary On
Versions: 1 2 3 4 5 6 7 8 9 10 11 12 13 14 15 16 17 18 19 20 21 22 23 24 25 26 27 28 29 30 31 32 33 34 35 36 37 38 39 40 41 42 43 44 45 46 47 48 49 50
298
ASUS46 KPDT 281404
RWRPDT
PENDLETON REGIONAL WEATHER ROUNDUP
NATIONAL WEATHER SERVICE PENDLETON OREGON
700 AM PDT FRI APR 28 2017

NOTE: FAIR INDICATES FEW OR NO CLOUDS BELOW 12,000 FEET WITH NO
SIGNIFICANT WEATHER AND/OR OBSTRUCTIONS TO VISIBILITY.

# INDICATES UNOFFICIAL STATION AND DATA

WAZ520-281510-
EAST SLOPES OF WASHINGTON CASCADES

CITY            SKY/WX      TMP DP  RH  WIND    PRES   REMARKS
#CLE ELUM HS    N/A         38  30  73  SW6     30.12R
#CLE ELUM LAKE  N/A         N/A N/A N/A SW2     30.20R
#GLENWOOD       N/A         27  26  96  CALM    30.23R
#MANASTASH CYN  N/A         37  37  100 CALM    30.11R
#NELSON 3SW     N/A         35  29  78  CALM    30.44R
#NILE           N/A         36  30  79  SE1     29.47R
#TEANAWAY 4NE   N/A         32  28  85  CALM    N/A
#TROUT LAKE 1NE N/A         39  31  73  W3      30.22R
#TROUT LAKE 1E  N/A         38  30  73  CALM    30.21R
$$

WAZ521-281510-
SIMCOE HIGHLANDS

CITY            SKY/WX      TMP DP  RH  WIND    PRES   REMARKS
#BICKLETON HS   N/A         40  27  59  NW16    29.76R WCI 32
#CENTERVILLE 1SWN/A         36  30  79  NW7     30.19R
#GOLDENDALE 1NE N/A         34  26  72  CALM    N/A
#GOLDENDALE 4W  N/A         35  14  41  CALM    30.23R
#GOODNOE HILLS  N/A         41  33  73  W12     N/A    WCI 34
#LYLE 6NE       N/A         38  34  85  SW7     30.21R
#PITT 4SE       N/A         34  32  92  SW8     30.26R
$$

WAZ026-281510-
KITTITAS VALLEY

CITY            SKY/WX      TMP DP  RH  WIND    PRES   REMARKS
ELLENSBURG AP   SUNNY       41  30  65  NW17    30.16R WCI 33
#ELLENSBURG CWU N/A         41  32  70  NW10    30.11R
#ELLENSBURG 3NE N/A         38  31  76  NW7     28.22R
#ELLENSBURG 13S N/A         38  30  73  W5      N/A
#KITTITAS 4N    N/A         38  30  73  NW12    30.15R WCI 30
#KITTITAS 3S    N/A         38  31  76  CALM    30.16R
#THORP 6N       N/A         35  30  82  N15     30.22R WCI 25
$$

WAZ027-281510-
YAKIMA VALLEY

CITY            SKY/WX      TMP DP  RH  WIND    PRES   REMARKS
SUNNYSIDE AP    SUNNY       31  28  88  NE3     30.18R
YAKIMA AIRPORT  SUNNY       48  29  47  NW5     30.18R
YAKIMA-VAGABOND SUNNY       38  28  67  E3      30.15R
#DONALD 2NE     N/A         47   4  17  SW1     29.02R
#GRANDVIEW      N/A         37  29  72  CALM    30.20R
#MABTON         N/A         40  32  73  CALM    30.16R
#MOXEE 2E       N/A         43   0  16  NW2     30.11R
#NACHES 2SW     N/A         42  31  65  W15G26  30.11S WCI 34
#TERRACE HTS    N/A         43  29  57  N5      30.14R
#TOPPENISH      N/A         40  30  67  CALM    30.09R
#WEST VALLEY    N/A         43  28  55  CALM    30.15R
#W YAKIMA       N/A         46  30  53  N8      30.18R
#WHITE SWAN 5E  N/A         33  28  82  CALM    30.18R
#WILEY CITY 3W  N/A         46  24  42  CALM    30.13R
$$

WAZ028-281510-
LOWER COLUMBIA BASIN...WASHINGTON

CITY            SKY/WX      TMP DP  RH  WIND    PRES   REMARKS
PASCO           MOCLDY      43  34  70  S7      30.19R
PROSSER AWOS    N/A         34  30  85  CALM    30.22R
RICHLAND AWOS   CLOUDY      44  32  62  S7      30.19R
#BENTON CITY    N/A         41  32  70  NW3     30.09R
#CONNELL 5N     N/A         38  34  85  SW2     30.14R
#CONNELL 5NW    N/A         39  33  79  S5      30.09R
#ELTOPIA 6NW    N/A         42  36  79  CALM    29.12R
#KAHLOTUS       N/A         39  35  85  W13     30.15R WCI 31
#KENNEWICK 3S   N/A         40  35  82  S7      30.18R
#PATERSON       N/A         40  35  82  N1      30.19R
#SAGEMOOR 2W    N/A         40  34  79  SW5     30.04R
#TOUCHET 2S     N/A         42  33  70  SW16    30.17R WCI 34
#WEST PASCO     N/A         42  33  70  CALM    30.19R
$$

WAZ029-281510-
FOOTHILLS OF THE BLUES...WASHINGTON

CITY            SKY/WX      TMP DP  RH  WIND    PRES   REMARKS
WALLA WALLA AP  CLOUDY      44  33  65  S10     30.19R
#CLYDE 6NW      N/A         38  34  85  SW12    30.15R WCI 30
#DAYTON SCHOOL  N/A         41  28  59  S8      30.18R
#LOWDEN 2SE     N/A         42  34  73  CALM    30.16R
#PLEASANT VIEW 1N/A         37  35  92  S10     30.19R
#PRESCOTT       N/A         42  36  79  CALM    30.18R
#WHITMAN COLLEGEN/A         42  33  70  S3      30.25R
#WAITSBURG 5S   N/A         38  33  82  S8      30.29R
#WAITSBURG 8N   N/A         39  N/A N/A S16     29.91R WCI 30
#WALLA WALLA 5E N/A         42  34  73  S13     N/A    WCI 35
#WALLA WALLA U  N/A         43  34  70  CALM    30.20R
#WHITMAN MISSIONN/A         44  35  70  CALM    30.22R
$$

WAZ030-281510-
BLUE MOUNTAINS...WASHINGTON

CITY            SKY/WX      TMP DP  RH  WIND    PRES   REMARKS
#DIXIE 5SE      N/A         35  30  82  SW12    30.05R WCI 27
$$

ORZ009-041-WAZ024-281510-
COLUMBIA RIVER GORGE

CITY            SKY/WX      TMP DP  RH  WIND    PRES   REMARKS
THE DALLES AP   SUNNY       47  33  58  CALM    30.25R
#ARLINGTON AIRPON/A         41  34  76  SW3     30.22R
#CELILO DOT     N/A         46  30  53  SW8     N/A
#LYLE           N/A         46  38  73  W16G25  30.26R WCI 39
#MOSIER 1S      N/A         43  21  41  CALM    30.21S
#MURDOCK        N/A         47  36  65  NW14    30.21R WCI 41
#RUFUS DOT      N/A         46  33  60  W16     N/A    WCI 39
#SMITHVILLE     N/A         46  36  68  W14     30.19R WCI 40

$$

ORZ510-281510-
NORTH CENTRAL OREGON

CITY            SKY/WX      TMP DP  RH  WIND    PRES   REMARKS
#ANTELOPE       N/A         27  24  88  CALM    30.13R
#CHENOWITH 1W   N/A         38  30  73  W31     N/A    WCI 26
#COW CYN RST AREN/A         31  28  88  SW5     N/A
#DUFUR          N/A         34  28  78  CALM    30.20R
#DUFUR 9E       N/A         37  29  72  W6      30.29R
#GRASS VALLEY 1SN/A         33  28  82  SW3     30.31R
#KENT DOT       N/A         31  25  78  N8      N/A
#MAUPIN SCHOOL  N/A         38  30  73  CALM    30.27R
#MORO SCHOOL    N/A         39  33  79  W13     30.26R WCI 31
#SHANIKO 5WSW   N/A         30  22  72  N2      N/A
#SHANIKO 4NW    N/A         31  25  78  SW5     30.15R
#TYGH VALLEY 2NEN/A         37  31  79  CALM    30.24R
#WAPANITIA AIRPON/A         37  30  75  NW3     30.26R
#WASCO DOT      N/A         40  32  73  W8      N/A
#WASCO 5NE      N/A         38  32  79  N7      30.21R
$$

ORZ511-281510-
CENTRAL OREGON

CITY            SKY/WX      TMP DP  RH  WIND    PRES   REMARKS
BEND AIRPORT    SUNNY       28  23  81  CALM    30.20R
MADRAS AIRPORT  SUNNY       30  30  100 SE5     30.24R
PRINEVILLE AP   CLOUDY      34  30  85  SW3     30.20R
REDMOND AIRPORT SUNNY       34  23  64  W3      30.21R
#ASHWOOD SCHOOL N/A         34  28  78  CALM    30.16R
#BEND 1SW       N/A         24  22  92  SW1     N/A
#BEND-AWBREY    N/A         29  24  81  CALM    30.25R
#BEND-KIM LN    N/A         30  24  78  CALM    30.18R
#CULVER         N/A         31  26  81  CALM    30.17R
#CULVER 8W      N/A         34  20  56  CALM    30.18R
#LAKE BILLY CHINN/A         33  N/A N/A CALM    30.30R
#MADRAS 4S      N/A         31  -5  20  S6      30.29R
#POWELL BUTTE   N/A         32  24  72  SW2     30.13R
#PRINEVILLE     N/A         30  27  88  CALM    30.33R
#PRINEVILLE 3N  N/A         31  28  88  E3      30.25R
#WARM SPRINGS   N/A         30  28  92  CALM    30.19R

$$


ORZ509-281510-
EAST SLOPES OF OREGON CASCADES

CITY            SKY/WX      TMP DP  RH  WIND    PRES   REMARKS
SISTERS AWOS    N/A         34  25  69  W6      30.14S
#BLUE BOX PASS  N/A         28  N/A N/A NW2     N/A
#CAMP SHERMAN   N/A         26  23  88  CALM    30.35R
#LA PINE 4NW    N/A         25  21  84  CALM    30.28R
#LAVA BUTTE DOT N/A         23  21  92  S13     N/A    WCI 11
#SISTERS 3N     N/A         31  20  63  CALM    30.20R
#SUNRIVER       N/A         24  22  92  CALM    30.26R
#TUMALO 3W      N/A         30  22  72  W5      30.12S
#WANOGA BUTTE D N/A         24  11  57  NE6     N/A

$$

ORZ044-281510-
LOWER COLUMBIA BASIN...OREGON

CITY            SKY/WX      TMP DP  RH  WIND    PRES   REMARKS
HERMISTON       SUNNY       43  33  67  SW15    30.20R WCI 36
#BOARDMAN SCHOOLN/A         42  34  73  S9      30.19R
#BOARDMAN 8SW   N/A         41  35  79  SW6     30.21R
#ECHO 8SW       N/A         42  31  65  SW6     30.20R
#I-84 EX 198 DOTN/A         39  30  70  E13     N/A    WCI 31
#IONE SCHOOL    N/A         41  27  57  SW7     30.23R
$$

ORZ507-281510-
NORTHERN FOOTHILLS OF THE BLUES

CITY            SKY/WX      TMP DP  RH  WIND    PRES   REMARKS
PENDLETON AIRPT SUNNY       39  30  70  SW13    30.18R WCI 31
#ADAMS 3WNW     N/A         36  31  82  CALM    30.20R
#ATHENA         N/A         39  32  76  SW1     30.23R
#CAYUSE         N/A         40  32  73  SW5     30.20R
#HELIX SCHOOL   N/A         35  31  85  SW6     30.20R
#HELIX 3N       N/A         34  31  89  S7      30.13R
#HOLDMAN 5SE    N/A         38  32  79  SW7     30.17R
#HOLDMAN 6E     N/A         35  30  82  S6      30.00R
#M-F FERNDALE   N/A         43  31  62  CALM    30.16R
#M-F GROVE ELEM N/A         43  30  60  S7      30.16R
#M-FREEWATER 5SEN/A         41  31  67  S2      30.18R
#PENDLETON DNTN N/A         40  27  59  CALM    30.19R
#PDT AQUATIC CTRN/A         40  28  62  E2      30.20R
#PDT SUNRIDGE   N/A         41  31  67  CALM    30.21R
#PENDLETON 7NW  N/A         38  30  73  SW7     25.63S
#PILOT ROCK 1S  N/A         39  27  62  S7      30.18R
#PILOT ROCK     N/A         39  30  70  W6      30.19R
#TUTUILLA       N/A         38  32  79  CALM    30.21R
#UMAPINE 2E     N/A         44  34  68  SW6     30.16R
#WESTON SCHOOL  N/A         38  28  67  SW5     30.18R

$$

ORZ508-281510-
SOUTHERN FOOTHILLS OF THE BLUES

CITY            SKY/WX      TMP DP  RH  WIND    PRES   REMARKS
LEXINGTON       SUNNY       39  30  70  S7      30.24R
#AJAX           N/A         35  21  56  S6      30.32R
#CONDON 5W      N/A         30  25  81  SW9     30.12R
#FOSSIL SCHOOL  N/A         31  28  88  CALM    30.13R
#HEPPNER EOC    N/A         37  28  70  SW3     30.16R
#HEPPNER 4NE    N/A         34  28  78  SW5     30.21R
#LEXINGTON 2SE  N/A         40  31  70  CALM    30.18R
#MIKKALO        N/A         39  28  64  W8      30.29R
#OLEX 4N        N/A         41  32  70  SW12    30.19R WCI 34
#RUGGS 5NE      N/A         35  28  75  SW7     30.33R
#RUGGS 2SW      N/A         35  28  75  W9      30.23R

$$

ORZ502-503-281510-
BLUE MOUNTAINS

CITY            SKY/WX      TMP DP  RH  WIND    PRES   REMARKS
MEACHAM         CLOUDY      32  24  72  CALM    30.13R
#BATTLE MTN DOT N/A         30  24  78  CALM    N/A
#GREENHORN 9SW  N/A         32  30  92  CALM    26.31R
#HARDMAN 10S    N/A         29  25  85  W3      30.35R
#LADD CYN SMT   N/A         34  28  78  NW8     N/A
#LADD CREEK ODOTN/A         35  28  75  NE8     N/A
#LONG CREEK HS  N/A         32  31  96  CALM    N/A
#N POWDER DOT   N/A         31  29  92  NE10    N/A
#PIKES PEAK     N/A         31  26  81  N20G26  27.99S WCI 19
#TOLLGATE       N/A         25  24  96  SW5     29.92R
#TROY SCHOOL    N/A         40  36  85  CALM    30.00R
#UKIAH          N/A         33  27  78  CALM    30.12R
#WESTON 4E      N/A         32  28  85  S7      30.17R
$$

ORZ505-281510-
JOHN DAY BASIN

CITY            SKY/WX      TMP DP  RH  WIND    PRES   REMARKS
JOHN DAY        CLOUDY      34  30  85  W5      30.17R
#ANTELOPE 9ESE  N/A         37  30  75  CALM    N/A
#DAYVILLE SCHOOLN/A         35  27  72  CALM    30.15R
#MITCHELL       N/A         31  29  92  CALM    30.33R
#MITCHELL 8NW   N/A         33  25  72  SE1     30.25R
#MT. VERNON 5SE N/A         31  28  88  CALM    30.10R
#SPRAY SCHOOL   N/A         34  N/A N/A CALM    N/A
$$

ORZ506-281510-
OCHOCO AND JOHN DAY HIGHLANDS

CITY            SKY/WX      TMP DP  RH  WIND    PRES   REMARKS
#HORSE RIDGE DO N/A         21  18  88  SE2     N/A
#PAULINA ODOT   N/A         31  26  81  CALM    N/A
#PINE MTN OBS   N/A         21  19  92  NW7     N/A
#PRAIRIE CITY   N/A         33  28  82  CALM    30.29R
#SENECA 9NW     N/A         29  24  81  CALM    30.18R
$$

ORZ049-281510-
GRANDE RONDE VALLEY

CITY            SKY/WX      TMP DP  RH  WIND    PRES   REMARKS
LA GRANDE       PTCLDY      37  28  70  N12     30.14R WCI 29
#COVE           N/A         36  33  89  CALM    30.16R
#COVE SCHOOL    N/A         36  32  85  CALM    30.15R
#COVE 6NW       N/A         37  31  79  W1      30.19R
#ELGIN 3N       N/A         37  28  70  S5      30.11R
#ELGIN 1E       N/A         38  30  73  CALM    N/A
#IMBLER SCHOOL  N/A         37  31  79  CALM    30.09R
#ISLAND CITY 4N N/A         34  33  96  CALM    30.35R
#UNION 1S       N/A         38  31  76  NW3     30.20R
$$

ORZ050-281510-
WALLOWA COUNTY

CITY            SKY/WX      TMP DP  RH  WIND    PRES   REMARKS
#IMNAHA SCHOOL  N/A         42  35  76  N5      30.13R
#IMNAHA 10S     N/A         35  32  89  CALM    30.10R
#JOSEPH 3N      N/A         29  24  81  CALM    30.10R
#JOSEPH 3W      N/A         30  30  100 CALM    29.91R
#LOSTINE        N/A         35  29  78  CALM    29.96R
#LOSTINE 3SE    N/A         34  30  85  N1      30.15R
#MT HOWARD 8000 N/A         18  16  92  CALM    29.94R
#PROMISE 1S     N/A         33  28  82  SW8     30.25R
#WALLOWA SCHOOL N/A         37  30  75  W2      30.09R



$$



USA.gov is the U.S. government's official web portal to all federal, state and local government web resources and services.